Wind_Speed
23 22 23 23 23 22 22 22 22 22 22 21 21 21 20 21 22 22 22 22 23 24 24 25 25 25 26 27 27 27 26 26 26 26 26 26 26 26 27 28 28 27 27
22 22 22 22 22 22 22 21 21 21 21 21 22 22 20 20 20 21 22 22 23 24 24 25 26 26 26 27 28 28 28 28 27 27 27 28 28 28 28 28 28 28 27
21 21 22 22 22 22 21 21 21 21 21 21 21 22 21 20 20 21 22 22 23 24 24 25 26 27 26 27 27 28 29 29 29 29 29 29 29 29 29 29 29 29 28
21 21 21 21 20 20 20 20 21 21 21 21 21 22 22 21 21 21 22 23 24 25 25 25 26 27 27 27 28 28 29 29 29 29 30 30 31 31 31 31 31 31 30
21 20 19 19 19 19 20 20 20 21 21 21 21 21 22 23 22 22 22 23 24 25 25 26 27 28 29 29 29 28 29 30 30 30 30 31 32 32 32 32 32 33 32
20 20 19 18 18 19 20 21 21 21 22 22 22 22 23 24 23 23 22 23 24 25 26 26 27 28 30 29 29 29 29 30 30 31 31 31 32 32 33 34 33 34 34
19 19 19 19 20 20 21 21 21 22 21 22 23 23 23 24 24 24 24 24 25 25 26 26 26 26 29 30 30 30 30 31 32 32 32 32 33 33 34 35 34 34 35
19 19 19 19 19 20 20 21 21 21 22 23 23 23 24 24 24 25 26 26 26 26 26 26 26 27 27 29 30 31 30 30 31 32 32 32 33 33 34 35 35 35 35
18 17 18 19 19 19 20 21 22 22 22 23 24 25 24 24 25 26 27 27 26 26 25 25 26 27 27 28 29 30 30 30 31 32 33 33 33 34 34 35 35 35 35
17 17 18 19 20 20 20 21 22 23 23 24 25 26 26 26 26 26 27 27 27 26 26 26 26 27 27 27 28 29 31 32 32 32 33 34 34 34 35 36 36 36 36
17 18 18 19 20 21 22 22 23 22 23 23 24 25 26 27 26 26 26 26 27 27 27 27 27 27 28 28 29 29 30 32 33 33 34 34 34 35 36 36 37 37 36
18 18 19 19 20 21 21 21 22 22 23 23 23 25 26 26 26 27 27 26 27 28 28 27 27 28 29 30 30 30 30 31 33 34 34 35 35 35 35 37 37 37 37
17 18 18 19 20 20 20 21 21 22 23 24 24 24 25 25 26 26 27 27 28 28 28 28 28 29 30 31 31 31 32 32 33 34 35 35 36 36 36 36 37 38 38
16 17 18 19 20 20 21 21 21 21 22 23 23 24 24 25 25 26 26 27 27 27 27 28 29 30 31 31 32 32 32 32 32 33 34 35 35 36 35 35 37 38 38
16 17 17 18 19 20 21 21 21 21 21 22 22 22 23 23 24 24 25 25 25 26 27 28 29 30 30 30 31 32 32 32 32 33 35 35 35 35 35 36 37 39 39
16 16 17 18 19 19 20 20 20 20 20 21 21 21 22 22 23 23 24 24 25 25 25 27 27 28 29 30 31 31 31 31 32 33 33 34 34 35 36 37 37 38 40
17 17 18 18 18 18 18 19 19 19 19 20 21 21 21 22 21 22 23 23 24 24 24 24 25 25 26 27 28 30 30 29 30 30 31 32 34 35 35 36 37 38 38
17 17 17 16 16 17 18 18 18 18 18 18 19 20 20 21 21 21 21 22 22 22 23 23 23 25 25 26 27 27 28 28 28 29 29 31 32 34 35 35 36 37 38
17 16 15 15 16 17 17 17 17 17 17 18 18 19 20 20 20 20 20 20 20 20 21 22 23 24 24 24 25 25 27 27 28 28 29 29 30 32 33 34 34 35 37
15 14 14 15 16 17 17 16 15 15 16 16 17 18 19 19 19 18 19 18 18 19 20 21 22 22 23 24 24 25 26 27 28 28 29 29 30 31 32 33 32 33 35
14 14 14 15 16 16 16 14 13 14 15 16 17 17 18 17 17 18 17 17 17 19 20 21 21 21 22 23 24 25 26 27 28 28 29 30 31 32 32 33 33 35 35
13 13 14 15 15 15 15 14 14 15 16 16 16 17 17 17 18 18 18 18 19 19 20 20 21 22 22 23 24 25 25 26 27 28 29 29 30 31 32 33 33 34 35
13 13 13 14 15 15 15 15 15 15 16 17 18 19 19 19 20 21 20 20 20 19 20 20 21 22 22 23 24 25 25 26 27 27 28 28 29 30 32 33 34 35 36
13 13 14 14 15 15 15 16 16 16 17 18 19 20 21 21 22 22 21 22 21 21 21 22 22 23 23 23 24 25 25 26 27 27 28 28 29 30 31 32 33 34 35
13 13 14 15 15 16 16 16 16 16 17 19 20 21 22 23 23 23 23 23 22 22 22 22 23 24 24 24 25 26 26 27 27 27 28 28 28 28 30 31 32 33 34
13 14 15 15 16 16 16 17 17 18 18 20 21 22 23 24 24 25 24 24 23 23 23 23 23 24 24 24 25 25 26 26 26 26 26 27 28 28 29 30 31 32 33
Wind_Direction
282 281 283 280 278 276 276 276 276 277 276 275 275 273 271 268 267 267 266 266 266 264 262 263 261 261 260 258 257 255 254 251 250 248 245 244 244 245 244 243 242 241 241
282 282 282 280 278 277 276 274 275 276 274 274 273 272 271 269 268 269 268 267 266 264 262 261 261 261 261 259 257 255 253 253 251 247 244 243 244 244 244 243 242 242 242
282 282 279 278 277 278 275 275 277 276 275 275 273 272 270 270 268 270 270 267 267 264 262 261 259 259 261 260 258 255 253 253 252 249 246 245 244 244 244 245 244 243 243
282 281 280 278 277 277 276 277 278 278 276 275 276 272 267 268 268 269 269 268 267 267 264 261 258 258 259 260 259 256 254 252 252 250 249 247 245 246 245 245 245 244 243
280 281 283 281 278 274 275 276 278 279 278 277 276 275 270 269 268 269 271 271 270 269 266 262 261 258 257 258 257 255 253 252 252 250 250 249 248 248 247 246 246 244 243
281 282 283 281 279 278 277 277 278 278 277 277 276 275 274 271 271 272 272 273 272 270 267 263 262 259 256 255 255 254 254 252 251 250 250 250 249 248 247 247 246 245 243
283 282 281 281 280 279 279 278 278 276 276 276 276 276 275 273 271 271 271 272 271 269 268 265 262 260 256 255 255 255 255 253 252 251 250 249 248 248 247 246 246 246 244
282 281 282 283 282 279 279 280 281 277 277 277 277 278 277 275 275 273 273 274 271 269 267 265 263 261 258 258 257 255 255 254 253 252 252 250 250 250 247 246 245 245 245
284 284 284 285 284 281 281 283 283 283 280 278 277 277 278 275 274 274 274 275 274 273 269 265 263 261 261 261 260 257 256 255 254 255 254 253 253 252 250 248 246 245 245
287 286 287 286 285 284 284 286 286 285 284 283 281 280 280 278 275 273 274 275 274 274 273 268 265 263 262 262 262 260 258 256 256 255 255 253 251 251 250 248 245 245 245
290 290 289 288 286 285 286 287 286 286 286 285 284 284 282 282 279 277 277 275 273 272 271 267 264 263 262 263 263 262 260 259 258 257 256 254 251 250 249 248 246 246 245
293 291 291 291 290 288 287 286 287 287 287 287 288 288 286 285 281 279 278 276 274 271 269 268 266 266 264 264 263 263 263 263 262 259 257 255 253 251 249 248 246 245 245
300 296 295 295 294 293 289 288 288 289 289 289 290 291 290 287 283 280 279 276 273 272 270 269 269 267 266 266 265 265 265 264 261 259 257 256 255 253 250 248 247 245 245
305 300 298 299 297 295 294 292 290 292 292 292 292 292 291 289 286 284 282 278 275 272 269 268 269 269 268 268 266 266 265 262 260 259 257 257 256 254 250 247 245 245 244
307 305 302 303 303 300 298 297 294 292 293 293 294 295 293 291 289 287 284 281 277 273 270 269 268 268 268 267 266 265 264 261 260 260 259 258 256 253 250 247 245 245 245
312 310 307 307 307 305 302 301 300 298 296 295 295 295 295 294 293 290 287 283 279 278 275 270 269 268 267 267 265 264 263 262 261 260 259 259 256 253 252 250 247 245 245
315 314 313 312 311 309 306 304 302 300 298 297 297 297 298 297 296 293 290 285 281 279 277 275 274 273 271 270 268 267 265 263 262 262 260 258 255 253 253 252 250 246 245
321 319 317 316 315 314 312 310 307 305 304 303 303 304 303 302 300 298 294 289 285 281 278 277 277 276 277 276 274 270 267 266 265 263 261 259 257 254 254 254 252 249 246
325 326 324 322 321 319 317 316 311 308 307 307 308 310 310 308 306 304 303 297 290 286 283 281 279 278 278 279 278 275 271 268 267 265 263 262 259 257 254 255 254 253 249
328 330 327 326 326 325 323 322 320 318 315 313 312 313 316 315 313 311 312 307 297 293 290 286 284 283 281 279 277 275 272 269 268 266 265 263 261 259 257 256 255 254 251
328 328 328 329 330 329 330 329 327 326 325 322 320 320 319 318 317 317 315 310 304 299 295 291 289 288 286 282 279 276 274 271 270 267 266 265 262 260 259 259 257 257 254
327 329 330 331 332 333 333 331 328 326 325 325 326 326 325 322 321 321 319 314 307 304 299 294 292 291 290 286 283 280 278 276 273 269 267 266 265 262 261 261 260 257 255
329 329 329 332 334 333 331 330 330 330 330 330 330 329 328 327 324 322 321 318 313 307 302 298 296 294 292 289 286 284 282 280 276 271 268 266 265 264 262 262 261 259 257
326 328 330 331 334 334 332 329 328 329 330 331 331 331 328 327 324 323 321 319 317 312 308 304 301 299 296 295 291 288 285 282 278 273 269 266 264 265 264 262 261 260 258
324 325 326 329 332 335 334 333 330 330 332 332 331 330 329 327 326 324 322 320 318 315 312 308 305 303 301 298 295 290 288 284 280 275 270 268 266 266 266 264 262 260 259
326 327 327 328 330 332 332 332 331 331 331 330 329 329 330 330 329 327 325 322 319 317 315 313 310 307 304 302 300 296 291 289 284 278 274 270 267 266 266 265 264 262 259
Height
5815 5814 5812 5811 5809 5809 5809 5808 5808 5808 5808 5807 5807 5807 5808 5808 5809 5809 5810 5810 5811 5812 5813 5814 5815 5816 5818 5819 5820 5821 5823 5825 5827 5829 5831 5834 5836 5838 5840 5843 5845 5847 5849
5809 5808 5807 5805 5804 5804 5803 5803 5803 5802 5802 5802 5802 5802 5802 5803 5803 5804 5805 5805 5805 5806 5807 5808 5809 5810 5811 5812 5813 5815 5817 5818 5820 5823 5825 5827 5830 5832 5834 5837 5839 5841 5844
5803 5802 5801 5800 5800 5799 5798 5798 5798 5797 5797 5797 5797 5797 5797 5798 5798 5799 5799 5799 5799 5800 5801 5801 5802 5803 5804 5805 5806 5808 5809 5811 5814 5816 5818 5820 5823 5825 5828 5830 5833 5835 5838
5798 5797 5796 5795 5794 5793 5793 5793 5792 5792 5792 5792 5792 5792 5793 5793 5793 5793 5793 5793 5794 5794 5794 5795 5796 5797 5798 5799 5799 5801 5802 5804 5806 5809 5811 5813 5816 5818 5821 5823 5826 5829 5831
5791 5791 5791 5790 5789 5788 5788 5788 5788 5787 5787 5787 5787 5787 5787 5787 5787 5787 5788 5787 5787 5787 5788 5788 5789 5789 5790 5792 5792 5793 5795 5797 5799 5801 5803 5805 5808 5811 5813 5816 5819 5821 5824
5786 5786 5786 5785 5784 5783 5783 5782 5782 5782 5782 5782 5782 5782 5782 5781 5781 5781 5781 5781 5781 5781 5780 5780 5781 5782 5783 5784 5785 5786 5788 5790 5791 5793 5795 5798 5800 5803 5805 5808 5811 5813 5816
5781 5781 5781 5780 5779 5778 5778 5777 5777 5776 5776 5776 5776 5776 5776 5776 5775 5775 5775 5774 5774 5774 5773 5773 5773 5774 5775 5776 5778 5779 5780 5782 5784 5785 5788 5790 5792 5795 5797 5800 5802 5805 5808
5776 5776 5775 5775 5774 5773 5773 5772 5771 5771 5771 5770 5770 5770 5770 5770 5768 5768 5767 5767 5766 5766 5766 5765 5766 5766 5767 5768 5770 5771 5772 5774 5776 5777 5779 5781 5783 5786 5788 5791 5794 5797 5799
5772 5771 5770 5770 5769 5768 5768 5767 5766 5765 5764 5764 5764 5764 5763 5763 5762 5761 5760 5759 5758 5758 5758 5758 5758 5759 5760 5761 5761 5763 5764 5766 5767 5769 5771 5772 5774 5777 5779 5782 5785 5788 5791
5767 5766 5765 5765 5764 5763 5762 5761 5760 5759 5758 5757 5757 5756 5755 5754 5754 5754 5753 5751 5750 5750 5750 5750 5750 5751 5752 5753 5753 5754 5755 5757 5759 5760 5762 5763 5765 5767 5770 5772 5775 5778 5781
5763 5761 5760 5759 5758 5757 5756 5755 5754 5753 5752 5751 5750 5749 5748 5747 5746 5745 5745 5744 5743 5743 5742 5742 5743 5743 5744 5744 5745 5746 5746 5747 5749 5750 5752 5753 5755 5758 5760 5763 5765 5768 5771
5758 5756 5755 5754 5752 5751 5750 5749 5747 5746 5745 5744 5743 5741 5740 5739 5738 5737 5736 5736 5735 5734 5734 5734 5735 5735 5735 5736 5737 5737 5737 5738 5738 5740 5741 5743 5745 5747 5750 5752 5755 5758 5761
5754 5752 5750 5749 5747 5745 5744 5742 5741 5740 5739 5737 5735 5734 5732 5731 5730 5728 5728 5727 5726 5726 5726 5726 5726 5726 5726 5727 5727 5727 5727 5728 5728 5729 5731 5733 5735 5737 5739 5742 5745 5748 5751
5750 5748 5746 5744 5742 5740 5738 5736 5735 5733 5732 5730 5728 5726 5725 5723 5721 5720 5719 5719 5718 5718 5718 5718 5717 5717 5716 5716 5717 5716 5717 5718 5718 5720 5721 5722 5724 5726 5728 5731 5734 5737 5740
5745 5743 5741 5739 5736 5734 5732 5730 5728 5727 5725 5724 5722 5720 5718 5716 5714 5713 5711 5710 5710 5709 5710 5709 5708 5707 5707 5707 5707 5707 5707 5708 5708 5709 5711 5712 5713 5715 5717 5720 5723 5726 5729
5741 5739 5736 5734 5731 5728 5726 5724 5722 5721 5719 5717 5715 5713 5711 5709 5707 5705 5704 5702 5701 5701 5701 5700 5699 5698 5697 5697 5697 5697 5697 5698 5699 5699 5700 5701 5703 5704 5707 5709 5712 5715 5718
5738 5735 5732 5729 5726 5724 5721 5719 5717 5715 5713 5711 5709 5708 5705 5703 5701 5699 5697 5695 5694 5692 5692 5692 5691 5690 5689 5688 5688 5688 5688 5689 5689 5690 5690 5691 5693 5694 5696 5698 5701 5703 5706
5734 5730 5728 5725 5723 5720 5717 5715 5712 5710 5708 5706 5705 5702 5700 5697 5695 5692 5690 5688 5687 5685 5684 5684 5683 5682 5681 5680 5679 5679 5679 5679 5680 5681 5681 5682 5683 5684 5686 5688 5689 5692 5694
5730 5727 5724 5722 5719 5717 5714 5711 5709 5706 5704 5702 5700 5698 5695 5692 5689 5687 5684 5682 5680 5679 5678 5677 5676 5675 5673 5672 5671 5671 5670 5670 5671 5671 5672 5673 5673 5674 5676 5678 5679 5681 5683
5727 5724 5722 5720 5717 5714 5711 5708 5705 5703 5701 5698 5695 5693 5690 5687 5684 5682 5679 5677 5675 5673 5671 5670 5668 5667 5666 5665 5664 5663 5662 5662 5662 5663 5663 5663 5664 5665 5667 5668 5669 5671 5672
5725 5723 5720 5717 5714 5711 5708 5705 5703 5700 5698 5695 5692 5689 5686 5683 5680 5677 5674 5672 5670 5668 5666 5664 5662 5660 5659 5657 5656 5655 5654 5654 5654 5654 5654 5655 5655 5656 5656 5657 5659 5660 5662
5724 5721 5718 5715 5712 5709 5706 5703 5700 5697 5695 5691 5688 5685 5682 5679 5676 5673 5670 5667 5665 5662 5660 5658 5656 5654 5652 5650 5648 5647 5646 5646 5646 5646 5645 5645 5645 5645 5646 5647 5648 5649 5651
5722 5719 5716 5713 5710 5707 5704 5701 5698 5695 5692 5689 5685 5682 5679 5676 5672 5669 5666 5663 5660 5657 5654 5652 5650 5647 5645 5643 5641 5640 5638 5637 5636 5635 5635 5635 5635 5635 5636 5636 5637 5638 5640
5720 5717 5715 5711 5708 5705 5702 5698 5695 5692 5689 5686 5683 5679 5676 5672 5668 5665 5661 5658 5655 5651 5648 5645 5643 5640 5637 5635 5633 5631 5629 5628 5626 5625 5625 5625 5625 5625 5625 5626 5626 5627 5628
5718 5715 5712 5709 5706 5703 5699 5696 5693 5690 5687 5683 5680 5676 5672 5668 5664 5660 5656 5652 5649 5645 5642 5639 5636 5633 5630 5627 5624 5622 5620 5618 5617 5616 5615 5615 5615 5615 5615 5616 5616 5617 5618
5716 5713 5710 5707 5704 5700 5697 5694 5691 5687 5684 5680 5677 5672 5668 5663 5659 5654 5650 5646 5643 5639 5636 5632 5629 5625 5622 5619 5616 5613 5611 5609 5607 5606 5605 5605 5605 5605 5606 5606 5606 5606 5607